カタログに戻る

COSMOS 381

運用中軍事LEO
NORAD 4783·PAYLOAD·🇷🇺 Russia

打ち上げ Dec 2, 1970 から Plesetsk Cosmodrome

Loading…

次のパス (今後24時間)

TLE

最新Source: Space-Track

元期: Sep 14, 2026, 14:26 UTC

1 04783U 70102A   26257.60193939 -.00000001  00000-0  22598-4 0  9996
2 04783  74.0312 223.0281 0031373 224.4435 135.4167 13.75052430798449

AllMySatでCOSMOS 381をリアルタイム追跡

Download on the App Store